Bowling Green, KY

11:31 AM CST on January 20, 2018 (GMT -0600)
Bowling Green-Warren County Regional

Weather History for KBWG - December, 2011

Change the Weather History Date:

Sunday, December 11, 2011

  Actual Average Record
Temperature  
Mean Temperature 33 °F 39 °F  
Max Temperature 47 °F 49 °F 75 °F (2007)
Min Temperature 19 °F 30 °F 0 °F (1962)
Degree Days  
Heating Degree Days 32 26  
Month to date heating degree days 258 264  
Since 1 July heating degree days 891 1027  
Cooling Degree Days 0 0  
Month to date cooling degree days 0 0  
Year to date cooling degree days 1810 1491  
Moisture  
Dew Point 20 °F    
Average Humidity 61    
Maximum Humidity 85    
Minimum Humidity 37    
Precipitation  
Precipitation 0.00 in 0.17 in 2.84 in (1949)
Month to date precipitation 2.62 1.80  
Year to date precipitation 60.94 46.89  
Snow  
Snow 0.00 in 0.00 in 3.40 in (1898)
Month to date snowfall 0.0 0.2  
Since 1 July snowfall T 0.2  
Snow Depth 0.00 in    
Sea Level Pressure  
Sea Level Pressure 30.52 in    
Wind  
Wind Speed 1 mph (ENE)    
Max Wind Speed 8 mph    
Max Gust Speed 12 mph    
Visibility 10 miles    
Events      
T = Trace of Precipitation, MM = Missing Value Source: NWS Daily Summary

Daily Weather History Graph

Daily Weather History Graph

Search for Another Location

Airport or City:

Trip Planner

Search our weather history database for the weather conditions in past years. The results will help you decide how hot, cold, wet, or windy it might be!

Date:

Astronomy

Dec. 11, 2011 Rise Set
Actual Time 6:48 AM CST 4:29 PM CST
Civil Twilight 6:19 AM CST 4:58 PM CST
Nautical Twilight 5:47 AM CST 5:30 PM CST
Astronomical Twilight 5:15 AM CST 6:02 PM CST
Moon 5:38 PM CST (12/11) 7:36 AM CST (12/11)
Length of Visible Light 10h 38m
Length of Day
9h 40m
Full, 99% of the Moon is Illuminated
Dec 11
Full
Dec 17
Last Quarter
Dec 24
New
Jan 1
First Quarter
Jan 9
Full

Hourly Weather History & Observations

Time (CST) Temp. Windchill Dew Point Humidity Pressure Visibility Wind Dir Wind Speed Gust Speed Precip Events Conditions
12:53 AM 21.9 °F - 16.0 °F 78% 30.54 in 10.0 mi Calm Calm - N/A   Clear
1:53 AM 25.0 °F - 17.1 °F 72% 30.55 in 10.0 mi Calm Calm - N/A   Clear
2:53 AM 21.9 °F - 15.1 °F 75% 30.58 in 10.0 mi Calm Calm - N/A   Clear
3:53 AM 19.0 °F - 15.1 °F 85% 30.57 in 10.0 mi Calm Calm - N/A   Clear
4:53 AM 19.9 °F - 15.1 °F 81% 30.57 in 10.0 mi Calm Calm - N/A   Clear
5:53 AM 19.9 °F - 15.1 °F 81% 30.58 in 10.0 mi Calm Calm - N/A   Clear
6:53 AM 19.9 °F - 15.1 °F 81% 30.58 in 10.0 mi Calm Calm - N/A   Clear
7:53 AM 26.1 °F - 18.0 °F 71% 30.59 in 10.0 mi Calm Calm - N/A   Clear
8:53 AM 30.0 °F 25.2 °F 19.9 °F 66% 30.60 in 10.0 mi NE 4.6 mph - N/A   Clear
9:53 AM 35.1 °F 31.0 °F 23.0 °F 61% 30.59 in 10.0 mi NE 4.6 mph - N/A   Clear
10:53 AM 39.0 °F 34.8 °F 21.9 °F 50% 30.57 in 10.0 mi East 5.8 mph - N/A   Clear
11:53 AM 43.0 °F 41.3 °F 21.9 °F 43% 30.53 in 10.0 mi Variable 3.5 mph - N/A   Clear
12:53 PM 44.1 °F - 21.0 °F 40% 30.50 in 10.0 mi Calm Calm - N/A   Clear
1:53 PM 46.0 °F 44.8 °F 21.9 °F 39% 30.48 in 10.0 mi Variable 3.5 mph - N/A   Clear
2:53 PM 46.9 °F - 23.0 °F 39% 30.46 in 10.0 mi Calm Calm - N/A   Clear
3:53 PM 44.1 °F - 24.1 °F 45% 30.47 in 10.0 mi Calm Calm - N/A   Clear
4:53 PM 42.1 °F - 24.1 °F 49% 30.47 in 10.0 mi Calm Calm - N/A   Clear
5:53 PM 35.1 °F - 24.1 °F 64% 30.46 in 10.0 mi Calm Calm - N/A   Clear
6:53 PM 34.0 °F - 24.1 °F 67% 30.46 in 10.0 mi Calm Calm - N/A   Clear
7:53 PM 32.0 °F - 24.1 °F 73% 30.46 in 10.0 mi Calm Calm - N/A   Clear
8:53 PM 28.9 °F - 21.9 °F 75% 30.46 in 10.0 mi Calm Calm - N/A   Clear
9:53 PM 28.9 °F - 24.1 °F 82% 30.45 in 10.0 mi Calm Calm - N/A   Clear
11:53 PM 27.0 °F - 23.0 °F 85% 30.44 in 10.0 mi Calm Calm - N/A   Clear